Regional Weather Roundup
Issued by NWS

Home | Current Version | Previous Version | Graphics & Text | Print | Product List | Glossary On
Versions: 1 2 3 4 5 6 7 8 9 10 11 12 13 14 15 16 17 18 19 20 21 22 23 24 25 26 27 28 29 30 31 32 33 34 35 36 37 38 39 40 41 42 43 44 45 46 47 48 49 50
000
ASUS43 KLSX 231759
RWRMO

WEATHER SUMMARY FOR MISSOURI
NATIONAL WEATHER SERVICE SPRINGFIELD MO
100 PM CDT WED APR 23 2014

NOTE: "FAIR" INDICATES FEW OR NO CLOUDS BELOW 12,000 FEET WITH NO
       SIGNIFICANT WEATHER AND/OR OBSTRUCTIONS TO VISIBILITY.
       CURRENT SKY AND/OR WEATHER CONDITIONS ARE NOT AVAILABLE FOR
       CHILLICOTHE AND FARMINGTON.

MOZ001>031-035>038-043-044-053-054-231900-
...NORTHERN AND WESTERN MISSOURI...

CITY           SKY/WX    TMP DP  RH WIND       PRES   REMARKS
KANSAS CTY INT FAIR      67  38  34 SE21      29.89F
6HR MIN TEMP:  53; 6HR MAX TEMP:  67; 6HR PCP: TRACE;

KANSAS C DTWN  FAIR      69  38  32 SE17G26   29.90F
6HR MIN TEMP:  56; 6HR MAX TEMP:  70; 6HR PCP: TRACE;

LEE`S SUMMIT   FAIR      66  39  37 SE14G22   29.93F
6HR MIN TEMP:  53; 6HR MAX TEMP:  66;

ST JOSEPH      CLOUDY    59  40  49 SE17G23   29.87F
6HR MIN TEMP:  51; 6HR MAX TEMP:  60; 6HR PCP:  0.05;

CHILLICOTHE      N/A     56  42  59 SE12      29.98F
6HR MIN TEMP:  51; 6HR MAX TEMP:  56; 6HR PCP:  0.02;

KIRKSVILLE     LGT RAIN  55  36  48 SE17G23   30.01F
6HR MIN TEMP:  47; 6HR MAX TEMP:  56; 6HR PCP: TRACE;


$$
MOZ066>068-077>081-088>096-101>105-231900-
...SOUTHWEST MISSOURI...

CITY           SKY/WX    TMP DP  RH WIND       PRES   REMARKS
SPRINGFIELD    FAIR      72  42  34 S18G24    29.95F
6HR MIN TEMP:  51; 6HR MAX TEMP:  72;

JOPLIN         FAIR      76  45  33 S12       29.90F
6HR MIN TEMP:  51; 6HR MAX TEMP:  77;


$$
MOZ032>034-039>042-045>050-055>058-069>072-231900-
...CENTRAL MISSOURI...

CITY           SKY/WX    TMP DP  RH WIND       PRES   REMARKS
COLUMBIA       PTSUNNY   62  35  36 SE12      30.03F
6HR MIN TEMP:  46; 6HR MAX TEMP:  62;

JEFFERSON CITY FAIR      64  33  31 E10       30.02F
6HR MIN TEMP:  40; 6HR MAX TEMP:  65;

ROLLA          PTSUNNY   64  33  31 SE9       30.00F
6HR MIN TEMP:  45; 6HR MAX TEMP:  65;

SEDALIA        CLOUDY    62  38  40 SE13      29.99F
6HR MIN TEMP:  50; 6HR MAX TEMP:  62; 6HR PCP: TRACE;

OSAGE BEACH    FAIR      66  34  30 SE7       30.00F

$$
MOZ051-052-059>065-231900-
...EAST CENTRAL MISSOURI...

CITY           SKY/WX    TMP DP  RH WIND       PRES   REMARKS
ST LOUIS INTL  FAIR      63  37  38 SE13G22   30.09F
6HR MIN TEMP:  47; 6HR MAX TEMP:  63;

SPIRIT OF STL  FAIR      61  38  42 E12       30.07F
6HR MIN TEMP:  40; 6HR MAX TEMP:  62;

ST CHARLES     FAIR      62  36  37 SE10G16   30.08F
6HR MIN TEMP:  45; 6HR MAX TEMP:  62;


$$
MOZ072>076-082>087-097>100-106>115-231900-
...SOUTH CENTRAL AND SOUTHEAST MISSOURI...

CITY           SKY/WX    TMP DP  RH WIND       PRES   REMARKS
CAPE GIRARDEAU FAIR      66  39  37 E3        30.07F
6HR MIN TEMP:  42; 6HR MAX TEMP:  66;

FARMINGTON     FAIR      64  37  36 E7        30.07F
6HR MIN TEMP:  39; 6HR MAX TEMP:  64;

POPLAR BLUFF   FAIR      68  38  33 NE7       30.04F
6HR MIN TEMP:  45; 6HR MAX TEMP:  68;

WEST PLAINS    FAIR      68  35  29 SE10G17   30.03F
6HR MIN TEMP:  47; 6HR MAX TEMP:  68;


$$



USA.gov is the U.S. government's official web portal to all federal, state and local government web resources and services.